Showing default

FLOCK 4BE 11, 60501

Orbit data source: Space-Track

FLOCK 4BE 11, 60501 is a payload satellite owned by Planet (US) in SSO that was launched on Fri, 16 Aug 2024 UTC via an FALCON 9 launch vehicle from the Air Force Western Test Range (AFWTR). Payload-class satellites include a variety of spacecraft equipped with specific instruments for various scientific and technological missions. These include communications satellites like Starlink; space stations such as the ISS; scientific satellites like the Hubble; Earth observation satellites from companies like Planet Labs, Umbra, and HawkEye 360; GPS; miniature CubeSats for education and research; and military/defense satellites.

Loading next visibility...
Identifier
60501, 2024-149AK
Orbit
SSO
Country
Flag of USUS
Related business
Manufacturer
Planet
Mission
Operational Commercial Imaging
Bus & Motor
CUBESAT 3U, Unknown motor
Mass
5.7 kg wet, 5.7 kg dry
Launch date (UTC)
2024-08-16 (1 year ago)
Launch vehicle
FALCON 9
Launch site
Air Force Western Test Range (AFWTR)
Object type
Payload
Rocket body
Debris
Shape & HBR
Box + 2 Pan, 1.0 m
Radar Cross Section
0.072 m², Medium (>0.1 m² and < 1m²)

Expand to show TLE details & history
Last TLE update: 11 hours ago

TLE from 11 hours ago
0 FLOCK 4BE 11
1 60501U 24149AK  25352.74689489  .00015769  00000-0  46014-3 0  9990
2 60501  97.3886  70.6003 0004014 185.6028 174.5171 15.35416785 74596
Epoch: 2025-12-18T17:55Z
TLE epoch observation values (Epoch: 2025-12-18T17:55:31.718Z)
Latitude
-0.00005°
Longitude
74.12018°
Altitude
465.527 km
Speed
7.632 km/s
True Right ascension
04h 42m 24s
True Declination
0° 00' 00"
Sunlit
Object was in full shadow at epoch
Visualization orbit readout
Latitude
Unknown
Longitude
Unknown
Altitude
Unknown
Speed
Unknown
Apparent Right ascension
Unknown
Apparent Declination
Unknown
Sunlit
N/A
Visualization observer readout
Local Sidereal Time
03:41:04
Azimuth
Unknown
Elevation
Unknown
Doppler factor
Unknown
Orbital elements
Apogee altitude
459.371 km
Perigee altitude
453.884 km
Semi-major axis
6,834.764 km
Eccentricity
0.0004
Inclination
97.3886°
RAAN
70.6003°
Arg. of periapsis
185.6028°
True anomaly
174.52149°
Mean anomaly
174.5171°
Eccentric anomaly
174.5193°
Mean motion
3.84112 °/min
Orbital period
93.72 mins
BSTAR
0.00046014
Loading maneuver chart data...
Computing Atmospheric mass density...
Loading historical data...
Loading historical data...
Loading historical data...
Loading historical data...
Loading historical data...
Loading historical data...
Loading historical data...

Documentation

Showing up to 5 results
|